Weather observations for the past three days for
Puntilla
Metric (Imperial)
Date Time (akdt) Wind (kph) Vis. (km) Weather Sky Cond. Temperature (ºC) Relative Humidity Wind Chill (°C) Heat Index (°C) Pressure Precipitation (cm)
Air Dwpt 6 hour altimeter (cm) sea level (mb) 1 hr 3 hr 6 hr
Max. Min.
03 18:46 S 13 24.14 Overcast OVC030 3 -1 75% 0 76.23 0.0
03 16:46 S 9 16.09 Overcast OVC040 4 1 81% 2 76.25 0.0
03 14:45 S 13 24.14 Overcast OVC040 4 1 81% 1 76.33 0.0
03 12:45 S 9 24.14 Overcast OVC050 4 1 81% 2 76.33 0.0
03 10:45 S 11 16.09 Mostly Cloudy BKN020 3 -1 75% 0 76.35 0.0
03 06:50 Calm 24.14 Partly Cloudy FEW020 SCT060 -1 -1 100% 76.33 0.0
02 18:45 S 13 40.23 A Few Clouds FEW020 4 -2 65% 1 76.02 0.0
02 16:45 S 19 40.23 Mostly Cloudy BKN020 4 0 75% 0 76 0.0
02 14:45 S 15 40.23 Mostly Cloudy BKN020 3 -1 75% -0 75.9 0.0
02 12:45 S 11 40.23 Overcast OVC020 2 -1 81% -1 75.82 0.0
02 10:45 S 15 4.83 Fog/Mist BKN010 1 -1 87% -3 75.69 0.0
02 08:53 S 9 1.61 Fog/Mist BKN010 -1 -1 100% -4 75.57 0.0
02 06:50 S 6 0.40 Fog VV005 1 1 100% 75.44 0.0
01 18:45 S 22 0.80 Snow VV005 0 0 100% -5 74.83 0.0
01 16:45 S 24 1.61 Light Snow VV015 1 -1 87% -4 74.85 0.0
01 14:47 S 28 0.80 Snow VV005 1 -1 87% -5 74.98 0.0
01 12:45 S 26 1.61 Light Snow VV010 1 -1 87% -4 75.03 0.0
01 10:45 S 22 0.80 Snow VV005 0 0 100% -5 75.08 0.0
01 08:50 S 28 0.80 Snow VV005 0 0 100% -6 75.18 0.0
01 06:45 S 13 G 28 1.61 Light Snow VV010 0 0 100% -4 75.29 0.0
Date Time (akdt) Wind (kph) Vis. (km) Weather Sky Cond. Air Dwpt Max. Min. Relative Humidity Wind Chill (°C) Heat Index (°C) altimeter (cm) sea level (mb) 1 hr 3 hr 6 hr
6 hour
Temperature (ºC) Pressure Precipitation (cm)